FW2795 Weather Reports


Display with metric or nautical units.
time (UTC)temp
F
wind
direction
speed
MPH
gust
MPH
rain 1hr
in
rain 24hr
in
rain mn
in
humidity
%
barometer
mb
20260510085055 56 52 4.0 8.0 0.00 0.00 0.00 66 1018.3
20260510084555 56 72 4.0 8.0 0.00 0.00 0.00 66 1018.5
20260510084109 55 57 4.0 8.0 0.00 0.00 0.00 66 1018.6
20260510083559 56 61 5.0 9.0 0.00 0.00 0.00 68 1018.5
20260510083059 55 35 5.0 8.0 0.00 0.00 0.00 68 1018.6
20260510082558 55 40 4.0 7.0 0.00 0.00 0.00 68 1018.6
20260510082058 55 66 4.0 6.0 0.00 0.00 0.00 69 1018.4
20260510081558 54 54 2.0 4.0 0.00 0.00 0.00 69 1018.5
20260510081112 54 46 3.0 7.0 0.00 0.00 0.00 70 1018.6
20260510080602 54 53 4.0 7.0 0.00 0.00 0.00 70 1018.5
20260510080132 53 78 5.0 10.0 0.00 0.00 0.00 72 1018.6
20260510075551 53 60 11.0 16.0 0.00 0.00 0.00 73 1018.7
20260510075051 53 79 4.0 9.0 0.00 0.00 0.00 74 1018.7
20260510074550 53 94 3.0 8.0 0.00 0.00 0.00 75 1018.6
20260510074050 52 89 7.0 8.0 0.00 0.00 0.00 76 1018.7
20260510073549 52 93 5.0 10.0 0.00 0.00 0.00 76 1018.5
20260510073049 52 70 4.0 6.0 0.00 0.00 0.00 76 1018.7
20260510072548 52 52 3.0 8.0 0.00 0.00 0.00 77 1018.6
20260510072103 52 58 3.0 4.0 0.00 0.00 0.00 78 1018.5
20260510071602 52 75 4.0 7.0 0.00 0.00 0.00 77 1018.5
20260510071102 52 80 7.0 11.0 0.00 0.00 0.00 77 1018.6
20260510070601 52 27 2.0 4.0 0.00 0.00 0.00 78 1018.5
20260510070116 52 8 4.0 7.0 0.00 0.00 0.00 79 1018.6
20260510065600 52 26 2.0 4.0 0.00 0.00 0.00 79 1018.3
20260510065100 52 28 2.0 6.0 0.00 0.00 0.00 79 1018.5
20260510064559 51 45 5.0 8.0 0.00 0.00 0.00 80 1018.5
20260510064059 51 74 4.0 7.0 0.00 0.00 0.00 80 1018.5
20260510063559 51 62 2.0 4.0 0.00 0.00 0.00 80 1018.3
20260510063058 51 56 4.0 6.0 0.00 0.00 0.00 80 1018.3
20260510062557 51 72 2.0 8.0 0.00 0.00 0.00 81 1018.3
20260510062057 51 72 4.0 7.0 0.00 0.00 0.00 81 1018.2
20260510061557 51 77 4.0 6.0 0.00 0.00 0.00 81 1018.2
20260510061111 51 70 0.0 2.0 0.00 0.00 0.00 81 1018.3
20260510060601 51 66 3.0 7.0 0.00 0.00 0.00 81 1018.3
20260510060116 51 67 4.0 7.0 0.00 0.00 0.00 82 1018.1
20260510055600 51 54 2.0 4.0 0.00 0.00 0.00 82 1018.2
20260510055100 51 59 2.0 4.0 0.00 0.00 0.00 82 1018.0
20260510054559 51 63 4.0 8.0 0.00 0.00 0.00 82 1018.0
20260510054104 51 60 2.0 4.0 0.00 0.00 0.00 82 1018.1
20260510053553 51 78 2.0 5.0 0.00 0.00 0.00 82 1018.2
20260510053108 51 72 2.0 4.0 0.00 0.00 0.00 82 1018.3
20260510052558 51 73 2.0 4.0 0.00 0.00 0.00 82 1018.2
20260510052057 50 59 1.0 2.0 0.00 0.00 0.00 82 1018.4
20260510051557 50 56 2.0 3.0 0.00 0.00 0.00 82 1018.3
20260510051056 50 45 4.0 8.0 0.00 0.00 0.00 82 1018.2
20260510050555 50 70 3.0 6.0 0.00 0.00 0.00 82 1018.4
20260510050125 50 56 2.0 4.0 0.00 0.00 0.00 82 1018.3
20260510045554 50 26 3.0 6.0 0.00 0.00 0.00 82 1018.2
20260510045054 50 348 3.0 7.0 0.00 0.00 0.00 82 1018.1
20260510044553 50 345 3.0 5.0 0.00 0.00 0.00 82 1018.2
20260510044053 50 332 2.0 4.0 0.00 0.00 0.00 82 1018.1
20260510043552 50 3 2.0 4.0 0.00 0.00 0.00 82 1018.2
20260510043052 50 10 2.0 3.0 0.00 0.00 0.00 82 1018.3
20260510042551 50 3 2.0 3.0 0.00 0.00 0.00 82 1018.4
20260510042106 50 18 2.0 3.0 0.00 0.00 0.00 83 1018.1
20260510041556 50 20 3.0 5.0 0.00 0.00 0.00 82 1018.3
20260510041055 50 45 2.0 2.0 0.00 0.00 0.00 82 1018.3
20260510040555 50 63 2.0 2.0 0.00 0.00 0.00 82 1018.3
20260510040124 50 81 2.0 4.0 0.00 0.00 0.00 82 1018.5
20260510035559 50 65 4.0 6.0 0.00 0.00 0.00 81 1018.3
20260510035059 50 93 4.0 9.0 0.00 0.00 0.00 81 1018.5
20260510034558 50 90 4.0 4.0 0.00 0.00 0.00 81 1018.5
20260510034058 50 96 3.0 5.0 0.00 0.00 0.00 81 1018.6
20260510033558 50 129 3.0 7.0 0.00 0.00 0.00 81 1018.6
20260510033057 50 328 2.0 4.0 0.00 0.00 0.00 81 1018.6
20260510032557 50 39 2.0 4.0 0.00 0.00 0.00 81 1018.6
20260510032111 50 73 3.0 4.0 0.00 0.00 0.00 81 1018.7
20260510031601 50 119 2.0 3.0 0.00 0.00 0.00 81 1018.7
20260510031100 50 105 2.0 4.0 0.00 0.00 0.00 80 1018.5
20260510030559 50 85 1.0 3.0 0.00 0.00 0.00 80 1018.7
20260510030114 50 87 2.0 4.0 0.00 0.00 0.00 80 1018.5
20260510025559 51 94 3.0 6.0 0.00 0.00 0.00 80 1018.8
20260510025058 51 64 3.0 4.0 0.00 0.00 0.00 80 1018.6
20260510024627 51 52 2.0 6.0 0.00 0.00 0.00 80 1018.5
20260510024056 51 54 2.0 4.0 0.00 0.00 0.00 80 1018.7
20260510023556 51 43 2.0 4.0 0.00 0.00 0.00 80 1018.6
20260510023055 51 41 5.0 9.0 0.00 0.00 0.00 80 1018.7
20260510022555 51 36 4.0 5.0 0.00 0.00 0.00 80 1018.6
20260510022054 51 350 1.0 2.0 0.00 0.00 0.00 80 1018.6
20260510021609 51 351 0.0 2.0 0.00 0.00 0.00 80 1018.6
20260510021058 51 4 1.0 2.0 0.00 0.00 0.00 81 1018.7
20260510020612 51 13 1.0 2.0 0.00 0.00 0.00 81 1018.6
20260510020132 51 18 2.0 5.0 0.00 0.00 0.00 81 1018.6
20260510015606 51 19 2.0 4.0 0.00 0.00 0.00 82 1018.6
20260510015111 51 35 4.0 8.0 0.00 0.00 0.00 82 1018.6
20260510014601 51 56 4.0 6.0 0.00 0.00 0.00 82 1018.7
20260510014100 51 66 3.0 6.0 0.00 0.00 0.00 82 1018.8
20260510013550 51 39 2.0 4.0 0.00 0.00 0.00 82 1018.9
20260510013050 51 42 1.0 2.0 0.00 0.00 0.00 82 1018.8
20260510012604 51 42 1.0 2.0 0.00 0.00 0.00 82 1019.0
20260510012054 51 56 2.0 3.0 0.00 0.00 0.00 81 1018.8
20260510011554 51 67 1.0 2.0 0.00 0.00 0.00 80 1018.9
20260510011054 51 75 3.0 4.0 0.00 0.00 0.00 80 1018.8
20260510010553 51 111 2.0 3.0 0.00 0.00 0.00 78 1018.9
20260510010123 51 102 2.0 4.0 0.00 0.00 0.00 76 1018.7
20260510005552 51 123 2.0 3.0 0.00 0.00 0.00 74 1018.7
20260510005052 52 93 2.0 4.0 0.00 0.00 0.00 73 1018.5
20260510004552 52 73 2.0 4.0 0.00 0.00 0.00 72 1018.6
20260510004052 52 56 2.0 3.0 0.00 0.00 0.00 71 1018.8
20260510003551 52 46 4.0 6.0 0.00 0.00 0.00 69 1018.8
20260510003051 53 39 1.0 2.0 0.00 0.00 0.00 67 1018.6
20260510002551 53 36 4.0 7.0 0.00 0.00 0.00 63 1018.8
20260510002105 53 14 2.0 5.0 0.00 0.00 0.00 63 1018.7
20260510001555 53 32 2.0 6.0 0.00 0.00 0.00 62 1018.6
20260510001055 53 18 2.0 3.0 0.00 0.00 0.00 61 1018.6
20260510000554 54 359 2.0 4.0 0.00 0.00 0.00 58 1018.7
20260510000123 54 28 4.0 8.0 0.00 0.00 0.00 55 1018.8
20260509235557 54 62 2.0 4.0 0.00 0.00 0.00 54 1018.6
20260509235047 54 77 3.0 5.0 0.00 0.00 0.00 53 1018.6
20260509234546 54 37 2.0 4.0 0.00 0.00 0.00 53 1018.6
20260509234101 55 65 2.0 3.0 0.00 0.00 0.00 53 1018.4
20260509233605 55 73 4.0 8.0 0.00 0.00 0.00 53 1018.5
20260509233055 55 55 4.0 7.0 0.00 0.00 0.00 53 1018.5
20260509232559 55 67 1.0 2.0 0.00 0.00 0.00 54 1018.5
20260509232049 56 67 2.0 3.0 0.00 0.00 0.00 54 1018.5
20260509231604 56 52 2.0 7.0 0.00 0.00 0.00 53 1018.5
20260509231053 56 38 2.0 4.0 0.00 0.00 0.00 53 1018.5
20260509230553 56 70 2.0 4.0 0.00 0.00 0.00 53 1018.5
20260509230107 56 78 2.0 3.0 0.00 0.00 0.00 53 1018.5
20260509225552 56 90 3.0 6.0 0.00 0.00 0.00 52 1018.3
20260509225052 56 72 0.0 1.0 0.00 0.00 0.00 52 1018.6
20260509224551 56 71 2.0 3.0 0.00 0.00 0.00 52 1018.3
20260509224106 56 71 4.0 5.0 0.00 0.00 0.00 52 1018.3
20260509223555 56 53 2.0 4.0 0.00 0.00 0.00 52 1018.3
20260509223055 57 61 1.0 2.0 0.00 0.00 0.00 52 1018.4
20260509222554 57 63 0.0 2.0 0.00 0.00 0.00 52 1018.3
20260509222054 57 50 1.0 2.0 0.00 0.00 0.00 52 1018.4
20260509221608 57 53 1.0 3.0 0.00 0.00 0.00 52 1018.3
20260509221058 57 52 2.0 4.0 0.00 0.00 0.00 51 1018.3
20260509220557 57 22 1.0 2.0 0.00 0.00 0.00 51 1018.2
20260509220112 58 27 2.0 2.0 0.00 0.00 0.00 51 1018.3
20260509215556 58 354 2.0 4.0 0.00 0.00 0.00 51 1018.2
20260509215056 58 143 2.0 3.0 0.00 0.00 0.00 51 1018.5
20260509214556 58 94 1.0 2.0 0.00 0.00 0.00 52 1018.5
20260509214056 58 105 2.0 4.0 0.00 0.00 0.00 52 1018.5
20260509213555 59 62 2.0 3.0 0.00 0.00 0.00 52 1018.3
20260509213110 59 41 1.0 2.0 0.00 0.00 0.00 51 1018.3
20260509212600 59 60 1.0 2.0 0.00 0.00 0.00 50 1018.3
20260509212059 59 105 0.0 1.0 0.00 0.00 0.00 50 1018.1
20260509211559 60 89 1.0 2.0 0.00 0.00 0.00 50 1018.1
20260509211058 60 90 2.0 4.0 0.00 0.00 0.00 50 1018.0
20260509210557 60 106 2.0 3.0 0.00 0.00 0.00 50 1018.0
20260509210112 60 117 4.0 5.0 0.00 0.00 0.00 50 1017.8
20260509205557 60 73 2.0 4.0 0.00 0.00 0.00 49 1017.8
20260509205056 60 51 3.0 4.0 0.00 0.00 0.00 49 1017.9
20260509204611 60 56 3.0 4.0 0.00 0.00 0.00 49 1017.8
20260509204100 60 63 2.0 4.0 0.00 0.00 0.00 48 1017.8
20260509203600 60 32 1.0 2.0 0.00 0.00 0.00 47 1017.8
20260509203100 61 32 0.0 2.0 0.00 0.00 0.00 46 1017.6
20260509202559 61 37 0.0 2.0 0.00 0.00 0.00 45 1017.6
20260509202104 61 44 1.0 2.0 0.00 0.00 0.00 45 1017.7
20260509201603 62 50 2.0 4.0 0.00 0.00 0.00 45 1017.7
20260509201102 62 85 2.0 3.0 0.00 0.00 0.00 45 1017.7
20260509200602 62 117 2.0 4.0 0.00 0.00 0.00 45 1017.7
20260509200117 62 172 2.0 3.0 0.00 0.00 0.00 44 1017.7
20260509195601 62 165 2.0 2.0 0.00 0.00 0.00 44 1017.2
20260509195101 62 211 2.0 3.0 0.00 0.00 0.00 44 1017.2
20260509194550 63 236 2.0 4.0 0.00 0.00 0.00 43 1017.2
20260509194105 63 19 1.0 2.0 0.00 0.00 0.00 43 1017.2
20260509193554 63 351 1.0 2.0 0.00 0.00 0.00 42 1017.2
20260509193054 64 16 0.0 2.0 0.00 0.00 0.00 42 1017.0
20260509192554 64 22 2.0 3.0 0.00 0.00 0.00 41 1017.1
20260509192053 65 48 2.0 8.0 0.00 0.00 0.00 42 1017.0
20260509191552 65 83 2.0 2.0 0.00 0.00 0.00 42 1017.2
20260509191052 65 158 1.0 3.0 0.00 0.00 0.00 41 1016.9
20260509190607 66 186 2.0 3.0 0.00 0.00 0.00 41 1016.9
20260509190111 66 176 2.0 6.0 0.00 0.00 0.00 40 1016.9
20260509185556 67 165 1.0 2.0 0.00 0.00 0.00 38 1016.9
20260509185111 67 166 3.0 5.0 0.00 0.00 0.00 38 1016.9
20260509184600 67 139 2.0 3.0 0.00 0.00 0.00 38 1016.8
20260509184100 67 87 1.0 2.0 0.00 0.00 0.00 38 1016.7
20260509183559 67 93 2.0 4.0 0.00 0.00 0.00 40 1016.7
20260509183059 68 144 1.0 4.0 0.00 0.00 0.00 40 1016.6
20260509182559 68 148 3.0 6.0 0.00 0.00 0.00 39 1016.5
20260509182048 68 156 1.0 2.0 0.00 0.00 0.00 39 1016.5
20260509181603 69 135 1.0 2.0 0.00 0.00 0.00 37 1016.5
20260509181103 70 146 4.0 7.0 0.00 0.00 0.00 34 1016.6
20260509180603 71 194 4.0 8.0 0.00 0.00 0.00 34 1016.4
20260509180117 71 104 2.0 4.0 0.00 0.00 0.00 33 1016.4
20260509175551 71 130 5.0 9.0 0.00 0.00 0.00 32 1016.5
20260509175051 71 71 3.0 6.0 0.00 0.00 0.00 32 1016.4
20260509174551 70 80 2.0 4.0 0.00 0.00 0.00 33 1016.4
20260509174106 71 65 4.0 5.0 0.00 0.00 0.00 32 1016.3
20260509173555 72 50 3.0 4.0 0.00 0.00 0.00 31 1016.4
20260509173110 71 47 2.0 4.0 0.00 0.00 0.00 31 1016.2
20260509172600 72 30 2.0 5.0 0.00 0.00 0.00 30 1016.4
20260509172059 72 8 4.0 6.0 0.00 0.00 0.00 29 1016.2
20260509171604 72 73 4.0 7.0 0.00 0.00 0.00 29 1016.3
20260509171048 71 108 2.0 4.0 0.00 0.00 0.00 32 1016.3
20260509170603 70 83 2.0 4.0 0.00 0.00 0.00 32 1016.4
20260509170117 70 83 4.0 6.0 0.00 0.00 0.00 32 1016.5
20260509165602 70 85 3.0 7.0 0.00 0.00 0.00 32 1016.5
20260509165102 70 84 3.0 6.0 0.00 0.00 0.00 32 1016.5
20260509164607 70 79 2.0 3.0 0.00 0.00 0.00 32 1016.6
20260509164056 71 104 3.0 5.0 0.00 0.00 0.00 31 1016.5
20260509163556 71 111 2.0 4.0 0.00 0.00 0.00 31 1016.7
20260509163055 72 122 3.0 7.0 0.00 0.00 0.00 29 1016.6
20260509162555 75 98 4.0 6.0 0.00 0.00 0.00 28 1016.6
20260509162055 76 272 1.0 2.0 0.00 0.00 0.00 27 1016.5
20260509161554 76 198 4.0 8.0 0.00 0.00 0.00 27 1016.4
20260509161054 76 50 3.0 4.0 0.00 0.00 0.00 29 1016.5
20260509160108 72 41 3.0 6.0 0.00 0.00 0.00 29 1016.6
20260509155553 73 73 2.0 4.0 0.00 0.00 0.00 28 1016.6
20260509154553 76 53 4.0 7.0 0.00 0.00 0.00 27 1016.8
20260509153552 75 95 2.0 3.0 0.00 0.00 0.00 32 1016.9
20260509153051 72 97 1.0 2.0 0.00 0.00 0.00 31 1016.8
20260509152551 71 98 4.0 8.0 0.00 0.00 0.00 31 1017.1
20260509151605 74 121 4.0 7.0 0.00 0.00 0.00 30 1017.1
20260509150554 75 67 2.0 2.0 0.00 0.00 0.00 32 1016.8
20260509145554 74 75 2.0 4.0 0.00 0.00 0.00 32 1016.9
20260509145054 72 74 2.0 3.0 0.00 0.00 0.00 31 1016.9
20260509144558 72 89 3.0 5.0 0.00 0.00 0.00 30 1016.8
20260509143603 72 89 4.0 7.0 0.00 0.00 0.00 31 1017.0
20260509142548 71 109 2.0 4.0 0.00 0.00 0.00 32 1016.9
20260509141602 72 87 4.0 8.0 0.00 0.00 0.00 30 1016.7
20260509141047 73 101 4.0 6.0 0.00 0.00 0.00 30 1016.7
20260509140547 73 130 12.0 98.0 3.76 3.76 0.00 30 1016.5
20260509135600 72 147 2.0 3.0 0.00 0.00 0.00 31 1016.8
20260509134550 71 121 4.0 9.0 0.00 0.00 0.00 32 1016.8
20260509133549 75 66 3.0 4.0 0.00 0.00 0.00 32 1016.9
20260509133049 75 102 3.0 5.0 0.00 0.00 0.00 32 1016.8
20260509132549 74 84 2.0 3.0 0.00 0.00 0.00 32 1017.0
20260509131603 76 86 6.0 11.0 0.00 0.00 0.00 31 1017.0
20260509131048 75 77 2.0 3.0 0.00 0.00 0.00 31 1016.9
20260509130547 75 96 2.0 4.0 0.00 0.00 0.00 32 1016.9
20260509125602 73 306 3.0 4.0 0.00 0.00 0.00 33 1017.0
20260509125101 72 90 2.0 6.0 0.00 0.00 0.00 33 1016.9
20260509124551 0 0.0 0.0 0.00 0.00 0.00 1017.1
20260509123551 0 0.0 0.0 0.00 0.00 0.00 1017.2
20260509123050 0 0.0 0.0 0.00 0.00 0.00 1017.4
20260509122550 0 0.0 0.0 0.00 0.00 0.00 1017.3
20260509121550 0 0.0 0.0 0.00 0.00 0.00 1017.5
20260509121049 0 0.0 0.0 0.00 0.00 0.00 1017.4
20260509120549 0 0.0 0.0 0.00 0.00 0.00 1017.4
20260509115603 0 0.0 0.0 0.00 0.00 0.00 1017.6
20260509115053 0 0.0 0.0 0.00 0.00 0.00 1017.5
20260509114552 0 0.0 0.0 0.00 0.00 0.00 1017.5
20260509113552 0 0.0 0.0 0.00 0.00 0.00 1017.9
20260509113052 0 0.0 0.0 0.00 0.00 0.00 1017.8
20260509112606 0 0.0 0.0 0.00 0.00 0.00 1017.9
20260509111556 0 0.0 0.0 0.00 0.00 0.00 1017.9
20260509111056 0 0.0 0.0 0.00 0.00 0.00 1018.1
20260509110555 0 0.0 0.0 0.00 0.00 0.00 1018.1
20260509105555 0 0.0 0.0 0.00 0.00 0.00 1018.1
20260509105054 0 0.0 0.0 0.00 0.00 0.00 1018.3
20260509104554 0 315 0.0 0.0 0.00 0.00 0.00 1018.3
20260509103553 0 217 0.0 0.0 0.00 0.00 0.00 1018.2
20260509103052 0 235 0.0 0.0 0.00 0.00 0.00 1018.4
20260509102552 0 292 0.0 0.0 0.00 0.00 0.00 1018.5
20260509101551 69 134 1.0 2.0 0.00 0.00 0.00 46 1018.4
20260509101106 69 139 3.0 5.0 0.00 0.00 0.00 46 1018.4
20260509100555 68 101 2.0 3.0 0.00 0.00 0.00 47 1018.4
20260509095555 69 134 4.0 8.0 0.00 0.00 0.00 47 1018.4
20260509095055 69 150 4.0 6.0 0.00 0.00 0.00 45 1018.5
20260509094544 70 123 2.0 2.0 0.00 0.00 0.00 46 1018.4
20260509093559 68 106 2.0 5.0 0.00 0.00 0.00 50 1018.6
20260509093044 68 110 2.0 4.0 0.00 0.00 0.00 51 1018.6
20260509092544 67 84 4.0 4.0 0.00 0.00 0.00 51 1018.7
20260509091558 68 114 2.0 4.0 0.00 0.00 0.00 51 1018.6
20260509090558 66 50 2.0 4.0 0.00 0.00 0.00 54 1018.6
20260509085557 64 49 3.0 7.0 0.00 0.00 0.00 55 1018.8